[[{"header":{"parameterUnit":"m.s-1","parameterCategory":2,"la1":30.2991,"la2":30.254,"lo1":-89.0895,"lo2":-89.0444,"dy":0.0017,"dx":0.0017,"nx":28,"ny":28,"refTime":"2024-06-08T03:00:00:Z","depth":"0","parameterNumber":2,"parameterNumberName":"U-component_of_CURRENTS"},"data":[0,0,0,0,0,0,0,0,0,0,0,0,0,0,0,0,0,0,0,0,0,0,0,0,0,0,0,0,0,0,0,0,0,0,0,0,0,0,0,0,0,0,0,0,0,0,0,0,0,0,0,0,0,0,0,0,0,0,-0.218,-0.218,0,-0.2229,-0.2229,-0.223,-0.2217,-0.2216,-0.2215,-0.2215,-0.2231,-0.2232,-0.2233,0,0,0,0,0,0,0,0,0,0,0,0,0,-0.2084,-0.2085,-0.2179,-0.218,-0.2181,-0.2229,-0.2229,-0.223,-0.2217,-0.2216,-0.2215,-0.2214,-0.223,-0.2232,-0.2233,0,0,0,0,0,0,0,0,0,0,0,0,0,-0.2127,-0.2086,-0.2179,-0.2182,-0.2183,-0.2229,-0.2229,-0.223,-0.2217,-0.2216,-0.2215,-0.2214,-0.223,-0.2232,-0.2233,-0.2268,0,0,-0.2239,-0.224,0,0,0,0,0,0,0,0,-0.2124,-0.213,-0.2181,-0.2182,-0.2183,-0.2217,-0.2202,-0.2242,-0.2218,-0.2202,-0.2215,-0.2213,-0.2225,-0.2228,-0.2237,-0.2269,-0.227,-0.2239,-0.224,-0.2241,-0.2241,0,0,0,0,0,0,0,-0.2121,-0.2128,-0.2197,-0.2182,-0.2183,-0.2184,-0.2189,-0.2209,-0.2218,-0.2203,-0.2203,-0.2212,-0.2225,-0.2235,-0.2237,-0.227,-0.2239,-0.224,-0.2242,-0.2242,-0.2318,-0.2319,0,0,0,0,0,0,-0.212,-0.2125,-0.2195,-0.2199,-0.2152,-0.2187,-0.2192,-0.2206,-0.2218,-0.222,-0.2213,-0.2211,-0.2233,-0.2235,-0.2238,-0.2276,-0.2241,-0.2242,-0.2243,-0.2317,-0.2318,-0.2319,0,0,0,0,0,0,-0.2118,-0.2126,-0.2194,-0.2164,-0.2173,-0.219,-0.2206,-0.2208,-0.2215,-0.2226,-0.2226,-0.2218,-0.2232,-0.2235,-0.226,-0.2276,-0.2243,-0.2245,-0.2316,-0.2318,-0.2319,-0.2355,0,0,0,0,0,0,-0.2115,-0.2125,-0.2132,-0.2164,-0.2175,-0.2224,-0.2207,-0.2209,-0.2223,-0.2221,-0.2231,-0.2231,-0.2231,-0.2257,-0.2261,-0.2278,-0.2246,-0.2315,-0.2317,-0.2318,-0.2352,-0.2357,-0.2361,0,0,0,0,0,-0.2112,-0.2128,-0.2132,-0.2141,-0.2185,-0.2225,-0.2231,-0.2237,-0.2225,-0.2236,-0.2241,-0.2231,-0.2271,-0.226,-0.2264,-0.2282,-0.2314,-0.2316,-0.2318,-0.235,-0.2356,-0.2361,0,0,0,0,0,0,-0.2089,-0.213,-0.2134,-0.2161,-0.2192,-0.2224,-0.2233,-0.224,-0.2255,-0.2248,-0.225,-0.2252,-0.2276,-0.2278,-0.2265,-0.2309,-0.2289,-0.2292,-0.2311,-0.2317,-0.2321,-0.2314,-0.2248,0,0,0,0,0,-0.2089,-0.2108,-0.215,-0.2169,-0.2185,-0.2209,-0.2224,-0.2235,-0.2254,-0.2259,-0.2268,-0.2276,-0.2292,-0.2302,-0.2315,-0.2346,-0.2328,-0.2359,-0.2363,-0.2367,-0.2365,-0.2359,-0.2362,-0.2327,-0.2327,-0.2326,0,0,-0.2082,-0.2108,-0.2117,-0.2165,-0.2184,-0.2223,-0.2215,-0.2243,-0.2272,-0.226,-0.2291,-0.2293,-0.2303,-0.2333,-0.2344,-0.2336,-0.2367,-0.237,-0.2373,-0.2368,-0.2361,-0.2365,-0.2368,-0.2328,-0.2328,-0.2328,0,0,-0.2088,-0.2105,-0.2127,-0.2161,-0.2203,-0.2226,-0.2236,-0.2274,-0.2285,-0.2323,-0.2315,-0.2331,-0.236,-0.2371,-0.238,-0.242,-0.2389,-0.2419,-0.2442,-0.2436,-0.2439,-0.2441,-0.2416,-0.2415,-0.2425,-0.2425,-0.2425,0,-0.2076,-0.2115,-0.214,-0.2179,-0.2206,-0.2229,-0.2267,-0.2293,-0.2333,-0.2343,-0.2336,-0.2372,-0.2381,-0.2414,-0.2424,-0.2431,-0.2409,-0.242,-0.2441,-0.2443,-0.2444,-0.2418,-0.2417,-0.2427,-0.2427,-0.2426,-0.2426,0,-0.2108,-0.2141,-0.2158,-0.2214,-0.2249,-0.2282,-0.233,-0.2356,-0.2368,-0.2388,-0.2417,-0.243,-0.2446,-0.2456,-0.2453,-0.2472,-0.2446,-0.2444,-0.2424,-0.245,-0.242,-0.2419,-0.243,-0.2429,-0.2428,-0.2428,0,0,-0.2069,-0.2161,-0.2165,-0.2195,-0.227,-0.2297,-0.2353,-0.2401,-0.2418,-0.2453,-0.2472,-0.2507,-0.2496,-0.2504,-0.2502,-0.2503,-0.2496,-0.2475,-0.2474,-0.2444,-0.2461,-0.2392,-0.2383,-0.249,-0.249,-0.249,-0.2433,0,-0.2081,-0.2152,-0.22,-0.2259,-0.2297,-0.2346,-0.2393,-0.2439,-0.2463,-0.2487,-0.2504,-0.2518,-0.2521,-0.2516,-0.2523,-0.2502,-0.2493,-0.251,-0.2445,-0.2443,-0.2375,-0.238,-0.2282,-0.2218,-0.2431,-0.2431,-0.243,0,-0.2089,-0.2138,-0.2201,-0.2279,-0.2298,-0.2337,-0.2395,-0.2437,-0.2484,-0.2504,-0.2526,-0.2529,-0.2546,-0.2533,-0.2521,-0.2526,-0.2493,-0.2475,-0.2472,-0.2393,-0.2371,-0.2229,-0.2206,-0.2184,-0.2427,-0.2428,-0.2428,0,-0.2038,-0.2129,-0.2174,-0.2205,-0.2304,-0.233,-0.2368,-0.2429,-0.2455,-0.2494,-0.2507,-0.2534,-0.2531,-0.2518,-0.2494,-0.2498,-0.2459,-0.2463,-0.237,-0.2364,-0.226,-0.2245,-0.2202,-0.2438,-0.2438,-0.2438,-0.2439,0,-0.2027,-0.2057,-0.2148,-0.2174,-0.2211,-0.2289,-0.2321,-0.2366,-0.2421,-0.2439,-0.2491,-0.2502,-0.2523,-0.251,-0.2488,-0.242,-0.2456,-0.2365,-0.2346,-0.2269,-0.2256,-0.2215,-0.2246,-0.2436,-0.2437,-0.2437,-0.2437,0,-0.196,-0.203,-0.2073,-0.2165,-0.2189,-0.2202,-0.2281,-0.2299,-0.2367,-0.2388,-0.2398,-0.2465,-0.2446,-0.2452,-0.2422,-0.2394,-0.2303,-0.2311,-0.221,-0.218,-0.2066,-0.2103,-0.2046,-0.1986,-0.2194,-0.2192,-0.219,0,-0.1933,-0.1951,-0.2032,-0.2049,-0.2086,-0.2128,-0.2155,-0.2247,-0.2269,-0.2356,-0.2352,-0.2369,-0.2354,-0.2303,-0.2252,-0.2187,-0.2206,-0.2071,-0.2067,-0.2036,-0.2065,-0.2095,-0.2052,-0.1941,-0.1938,-0.1935,-0.1932,0,-0.1861,-0.1886,-0.1922,-0.1955,-0.1984,-0.2016,-0.2062,-0.208,-0.2177,-0.2207,-0.2232,-0.2229,-0.2197,-0.2102,-0.204,-0.1994,-0.202,-0.2006,-0.2003,-0.1884,-0.1885,-0.1825,-0.2001,-0.1906,-0.1909,-0.1911,-0.1912,-0.1913,-0.1783,-0.1781,-0.1822,-0.1838,-0.1868,-0.1874,-0.1857,-0.1921,-0.1937,-0.1954,-0.2048,-0.2024,-0.2007,-0.1896,-0.1843,-0.173,-0.1802,-0.1694,-0.1745,-0.1781,-0.1712,-0.182,-0.1692,-0.1693,-0.1694,-0.1695,-0.1696,0,-0.1674,-0.1686,-0.1702,-0.1715,-0.1687,-0.1746,-0.1766,-0.173,-0.1698,-0.1769,-0.177,-0.1788,-0.169,-0.1679,-0.1585,-0.151,-0.1472,-0.1486,-0.1513,-0.1482,-0.1583,-0.1559,-0.136,-0.136,-0.136,-0.136,-0.1361,-0.1361,-0.162,-0.1593,-0.1601,-0.152,-0.1522,-0.1442,-0.142,-0.1394,-0.1416,-0.1402,-0.1446,-0.1529,-0.1559,-0.1653,-0.1527,-0.1436,-0.141,-0.1362,-0.1397,-0.1486,-0.151,-0.1533,-0.1515,-0.1311,-0.1311,-0.1219,-0.1218,-0.1218]},{"header":{"parameterUnit":"m.s-1","parameterCategory":2,"la1":30.2991,"la2":30.254,"lo1":-89.0895,"lo2":-89.0444,"dy":0.0017,"dx":0.0017,"nx":28,"ny":28,"refTime":"2024-06-08T03:00:00:Z","depth":"0","parameterNumber":3,"parameterNumberName":"V-component_of_CURRENTS"},"data":[0,0,0,0,0,0,0,0,0,0,0,0,0,0,0,0,0,0,0,0,0,0,0,0,0,0,0,0,0,0,0,0,0,0,0,0,0,0,0,0,0,0,0,0,0,0,0,0,0,0,0,0,0,0,0,0,0,0,-0.0199,-0.0198,0,-0.0125,-0.0124,-0.0123,-0.0063,-0.0063,-0.0062,-0.0062,0.0039,0.0041,0.0043,0,0,0,0,0,0,0,0,0,0,0,0,0,-0.0256,-0.0255,-0.0199,-0.0198,-0.0197,-0.0125,-0.0124,-0.0123,-0.0063,-0.0063,-0.0062,-0.0061,0.0038,0.0041,0.0043,0,0,0,0,0,0,0,0,0,0,0,0,0,-0.0211,-0.0255,-0.0199,-0.0159,-0.0155,-0.0125,-0.0124,-0.0122,-0.0064,-0.0063,-0.0062,-0.0061,0.0037,0.004,0.0044,0.0046,0,0,0.0053,0.0055,0,0,0,0,0,0,0,0,-0.0214,-0.0209,-0.0166,-0.0162,-0.0157,-0.0102,-0.0107,-0.0065,-0.0064,-0.0098,-0.0062,-0.0061,-0.0007,0.0,0.0012,0.005,0.0055,0.0054,0.0056,0.0057,0.0058,0,0,0,0,0,0,0,-0.0217,-0.0212,-0.0169,-0.0165,-0.0159,-0.0133,-0.0126,-0.0099,-0.0058,-0.0095,-0.0091,-0.0083,-0.0004,0.0009,0.0015,0.0056,0.0053,0.0056,0.0058,0.006,0.0106,0.0105,0,0,0,0,0,0,-0.0229,-0.0215,-0.0172,-0.0167,-0.0184,-0.0133,-0.0125,-0.0121,-0.0058,-0.0048,-0.0084,-0.008,0.0003,0.0011,0.0019,0.0025,0.0057,0.006,0.0062,0.0106,0.0106,0.0105,0,0,0,0,0,0,-0.0231,-0.0226,-0.0175,-0.0189,-0.0181,-0.0133,-0.0129,-0.012,-0.0104,-0.005,-0.0039,-0.0077,0.0004,0.0014,0.0039,0.0029,0.0061,0.0064,0.0107,0.0106,0.0105,0.0037,0,0,0,0,0,0,-0.0233,-0.0227,-0.0231,-0.019,-0.018,-0.0165,-0.0129,-0.0119,-0.0101,-0.0096,-0.0041,-0.0031,0.0005,0.0034,0.0042,0.0034,0.0067,0.0108,0.0107,0.0105,0.004,0.0033,0.0028,0,0,0,0,0,-0.0235,-0.0246,-0.0232,-0.0226,-0.0186,-0.0166,-0.0159,-0.0121,-0.0102,-0.0103,-0.0065,-0.0032,0.0032,0.0036,0.0046,0.0038,0.0109,0.0107,0.0106,0.0042,0.0035,0.0028,0,0,0,0,0,0,-0.0273,-0.024,-0.0223,-0.0224,-0.02,-0.0156,-0.0154,-0.0128,-0.0099,-0.0093,-0.004,-0.0028,-0.0011,0.002,0.0024,0.0047,0.0075,0.0075,0.0023,0.0016,0.0011,0.0003,0.0069,0,0,0,0,0,-0.0284,-0.0283,-0.0247,-0.0248,-0.0239,-0.0198,-0.0185,-0.0161,-0.0128,-0.0114,-0.0076,-0.0039,-0.0011,0.0008,0.0035,0.0049,0.0086,0.005,0.0044,0.0039,0.0039,0.0077,0.0074,0.01,0.01,0.01,0,0,-0.0298,-0.0281,-0.028,-0.0256,-0.0234,-0.0234,-0.0188,-0.0176,-0.0171,-0.0109,-0.0095,-0.006,-0.0014,0.0001,0.0011,0.0028,0.0052,0.0037,0.0032,0.0036,0.0075,0.0072,0.007,0.0099,0.0099,0.0099,0,0,-0.0336,-0.0313,-0.0329,-0.0314,-0.0288,-0.0262,-0.0262,-0.0224,-0.0202,-0.0185,-0.0142,-0.0113,-0.0071,-0.0038,-0.0016,-0.0038,0.0015,-0.0032,-0.0061,-0.0026,-0.0027,-0.0028,0.0017,0.0021,-0.003,-0.003,-0.003,0,-0.0356,-0.0368,-0.0331,-0.0342,-0.0336,-0.0281,-0.0297,-0.0269,-0.0227,-0.0213,-0.0192,-0.0129,-0.0089,-0.0064,-0.0069,-0.0051,-0.0019,-0.0038,-0.0033,-0.0033,-0.0033,0.0014,0.0018,-0.0034,-0.0033,-0.0033,-0.0033,0,-0.0403,-0.0413,-0.0422,-0.0418,-0.0405,-0.041,-0.0367,-0.0352,-0.0318,-0.0285,-0.0254,-0.0198,-0.0159,-0.0143,-0.0109,-0.0091,-0.0064,-0.0049,-0.0016,-0.004,0.0011,0.0017,-0.0039,-0.0038,-0.0037,-0.0036,0,0,-0.0446,-0.0457,-0.0458,-0.0476,-0.0446,-0.0445,-0.0433,-0.0408,-0.04,-0.0352,-0.0337,-0.0282,-0.0242,-0.0215,-0.0168,-0.0129,-0.0096,-0.0091,-0.0087,-0.0047,-0.0009,0.0054,0.0067,-0.0081,-0.008,-0.0079,0.0026,0,-0.0496,-0.0544,-0.0527,-0.0566,-0.0586,-0.0537,-0.053,-0.0496,-0.0452,-0.0423,-0.0353,-0.0323,-0.0272,-0.0252,-0.0208,-0.0126,-0.0083,-0.0125,0.001,0.0014,0.0072,0.0075,0.012,0.0222,0.0033,0.0034,0.0035,0,-0.0546,-0.0572,-0.0624,-0.0644,-0.0646,-0.0654,-0.0631,-0.0618,-0.0553,-0.0518,-0.0466,-0.0405,-0.0339,-0.0295,-0.0166,-0.0195,-0.0109,-0.0041,-0.0035,0.0053,0.0089,0.0216,0.0241,0.0398,0.0045,0.0044,0.0043,0,-0.06,-0.064,-0.0686,-0.0692,-0.0698,-0.0706,-0.07,-0.0647,-0.0638,-0.0574,-0.0555,-0.0466,-0.0419,-0.031,-0.0154,-0.0164,-0.0001,0.0001,0.0141,0.0147,0.0228,0.024,0.0421,0.0092,0.0091,0.0091,0.0091,0,-0.066,-0.0697,-0.0717,-0.0745,-0.0791,-0.0765,-0.0787,-0.0762,-0.0719,-0.0708,-0.061,-0.0571,-0.042,-0.0301,-0.017,0.0018,-0.001,0.0144,0.018,0.0206,0.0214,0.0389,0.0442,0.0095,0.0094,0.0094,0.0093,0,-0.0712,-0.0726,-0.0786,-0.0812,-0.0822,-0.0851,-0.0859,-0.0867,-0.0814,-0.0795,-0.0778,-0.065,-0.0485,-0.031,-0.0116,0.0002,0.028,0.0245,0.0274,0.0312,0.0569,0.0615,0.0824,0.093,0.04,0.0402,0.0404,0,-0.0746,-0.0781,-0.0841,-0.0878,-0.0896,-0.0929,-0.0947,-0.0919,-0.0922,-0.0834,-0.0829,-0.0668,-0.0532,-0.021,0.0033,0.0285,0.0397,0.0462,0.045,0.0605,0.0682,0.071,0.0785,0.0532,0.0535,0.0537,0.0539,0,-0.0805,-0.0822,-0.0871,-0.0948,-0.099,-0.1036,-0.1059,-0.1074,-0.1024,-0.0974,-0.087,-0.0749,-0.0423,-0.0103,0.0229,0.0377,0.059,0.0516,0.0671,0.0802,0.0851,0.0962,0.0445,0.0559,0.0557,0.0556,0.0555,0.0554,-0.0839,-0.0889,-0.0949,-0.1018,-0.1069,-0.112,-0.1142,-0.1137,-0.1113,-0.1012,-0.0896,-0.0669,-0.0219,0.0267,0.0453,0.0836,0.0779,0.0932,0.0976,0.0991,0.1097,0.0632,0.0787,0.0786,0.0785,0.0785,0.0784,0,-0.0879,-0.0936,-0.1013,-0.1095,-0.1151,-0.1161,-0.1197,-0.1181,-0.1129,-0.0994,-0.0842,-0.0342,0.012,0.0533,0.1067,0.128,0.1327,0.1373,0.1424,0.148,0.1072,0.1084,0.1318,0.1318,0.1318,0.1317,0.1317,0.1317,-0.0905,-0.0987,-0.1031,-0.1136,-0.1185,-0.1227,-0.1235,-0.1182,-0.1082,-0.0806,-0.053,-0.0309,0.0274,0.1147,0.1644,0.1688,0.1873,0.185,0.195,0.1664,0.1625,0.1589,0.1615,0.1957,0.1957,0.2355,0.2359,0.2362]}],[{"header":{"parameterUnit":"m.s-1","parameterCategory":2,"la1":30.2991,"la2":30.254,"lo1":-89.0895,"lo2":-89.0444,"dy":0.0017,"dx":0.0017,"nx":28,"ny":28,"refTime":"2024-06-08T03:00:00:Z","depth":"2","parameterNumber":2,"parameterNumberName":"U-component_of_CURRENTS"},"data":[0,0,0,0,0,0,0,0,0,0,0,0,0,0,0,0,0,0,0,0,0,0,0,0,0,0,0,0,0,0,0,0,0,0,0,0,0,0,0,0,0,0,0,0,0,0,0,0,0,0,0,0,0,0,0,0,0,0,-0.1964,-0.1964,0,-0.2012,-0.2012,-0.2013,-0.2006,-0.2005,-0.2005,-0.2004,-0.2034,-0.2036,-0.2037,0,0,0,0,0,0,0,0,0,0,0,0,0,-0.1876,-0.1878,-0.1964,-0.1964,-0.1965,-0.2012,-0.2013,-0.2013,-0.2006,-0.2005,-0.2004,-0.2004,-0.2034,-0.2035,-0.2037,0,0,0,0,0,0,0,0,0,0,0,0,0,-0.1917,-0.1878,-0.1963,-0.1968,-0.197,-0.2012,-0.2013,-0.2013,-0.2006,-0.2005,-0.2004,-0.2003,-0.2033,-0.2035,-0.2037,-0.207,0,0,-0.2044,-0.2045,0,0,0,0,0,0,0,0,-0.1915,-0.192,-0.1967,-0.1968,-0.197,-0.2003,-0.1993,-0.2032,-0.2006,-0.1991,-0.2004,-0.2003,-0.2024,-0.2027,-0.2036,-0.2072,-0.2073,-0.2044,-0.2045,-0.2046,-0.2047,0,0,0,0,0,0,0,-0.1912,-0.1918,-0.1981,-0.1968,-0.197,-0.1972,-0.1977,-0.2,-0.2011,-0.1992,-0.1992,-0.2,-0.2024,-0.2034,-0.2037,-0.2074,-0.2044,-0.2046,-0.2047,-0.2048,-0.2134,-0.2135,0,0,0,0,0,0,-0.191,-0.1915,-0.198,-0.1983,-0.1941,-0.1975,-0.198,-0.1992,-0.2011,-0.2013,-0.2001,-0.2,-0.2031,-0.2034,-0.2038,-0.208,-0.2046,-0.2048,-0.205,-0.2133,-0.2134,-0.2135,0,0,0,0,0,0,-0.1908,-0.1916,-0.1978,-0.1951,-0.1959,-0.1977,-0.1992,-0.1994,-0.2003,-0.2018,-0.202,-0.2009,-0.203,-0.2035,-0.2063,-0.2081,-0.2049,-0.2051,-0.2132,-0.2133,-0.2135,-0.2164,0,0,0,0,0,0,-0.1905,-0.1915,-0.1922,-0.1951,-0.1961,-0.2007,-0.1993,-0.1995,-0.2011,-0.201,-0.2026,-0.2027,-0.203,-0.206,-0.2066,-0.2083,-0.2053,-0.213,-0.2132,-0.2134,-0.2162,-0.2166,-0.217,0,0,0,0,0,-0.1902,-0.1917,-0.1922,-0.193,-0.1971,-0.2008,-0.2013,-0.2021,-0.2012,-0.2024,-0.2034,-0.2027,-0.2075,-0.2063,-0.2069,-0.2088,-0.2129,-0.2132,-0.2134,-0.216,-0.2165,-0.217,0,0,0,0,0,0,-0.1882,-0.1919,-0.1925,-0.1949,-0.1978,-0.2007,-0.2017,-0.2025,-0.2043,-0.2039,-0.2045,-0.2049,-0.2078,-0.2083,-0.2069,-0.2118,-0.21,-0.2103,-0.2117,-0.2123,-0.2127,-0.2121,-0.2055,0,0,0,0,0,-0.1883,-0.19,-0.1939,-0.1956,-0.1972,-0.1995,-0.201,-0.2021,-0.2042,-0.2048,-0.2061,-0.2075,-0.2094,-0.2106,-0.2123,-0.2157,-0.2141,-0.2171,-0.2175,-0.2179,-0.2178,-0.2176,-0.218,-0.2142,-0.2142,-0.2142,0,0,-0.1878,-0.1901,-0.191,-0.1953,-0.1972,-0.2007,-0.2001,-0.2029,-0.2057,-0.205,-0.2085,-0.2091,-0.2105,-0.2138,-0.2152,-0.2144,-0.218,-0.2182,-0.2185,-0.2182,-0.2179,-0.2182,-0.2185,-0.2144,-0.2144,-0.2143,0,0,-0.1883,-0.19,-0.192,-0.1951,-0.199,-0.2012,-0.2022,-0.2059,-0.2071,-0.2112,-0.2108,-0.2127,-0.2163,-0.2174,-0.2185,-0.2225,-0.2201,-0.2229,-0.225,-0.2248,-0.2251,-0.2253,-0.2229,-0.2229,-0.2234,-0.2234,-0.2234,0,-0.1874,-0.1909,-0.1932,-0.1967,-0.1993,-0.2016,-0.2051,-0.2077,-0.2118,-0.2131,-0.2126,-0.2171,-0.2182,-0.2217,-0.2227,-0.2235,-0.2218,-0.2229,-0.2252,-0.2254,-0.2256,-0.2231,-0.223,-0.2235,-0.2235,-0.2235,-0.2235,0,-0.1902,-0.1933,-0.1948,-0.2,-0.2033,-0.2064,-0.211,-0.2138,-0.2154,-0.2175,-0.2209,-0.2224,-0.2245,-0.2255,-0.2255,-0.2277,-0.2255,-0.2254,-0.2236,-0.2261,-0.2233,-0.2232,-0.2238,-0.2237,-0.2237,-0.2236,0,0,-0.1867,-0.195,-0.1954,-0.1983,-0.2052,-0.2079,-0.2134,-0.2182,-0.2203,-0.224,-0.2263,-0.2299,-0.2292,-0.2303,-0.2303,-0.2306,-0.2302,-0.2285,-0.2284,-0.2254,-0.2277,-0.2207,-0.2199,-0.2301,-0.2301,-0.2302,-0.2248,0,-0.1877,-0.1941,-0.1986,-0.2043,-0.2077,-0.2126,-0.2173,-0.222,-0.2248,-0.2276,-0.2294,-0.2314,-0.2316,-0.2316,-0.2324,-0.2309,-0.2301,-0.2315,-0.2262,-0.226,-0.2191,-0.2197,-0.2042,-0.1977,-0.2247,-0.2247,-0.2246,0,-0.1884,-0.1928,-0.1987,-0.2062,-0.2081,-0.212,-0.2182,-0.2224,-0.2275,-0.2298,-0.2323,-0.233,-0.2349,-0.2337,-0.233,-0.2335,-0.2306,-0.229,-0.2288,-0.2212,-0.2189,-0.1998,-0.1964,-0.2244,-0.2244,-0.2244,-0.2245,0,-0.1837,-0.1922,-0.1964,-0.1993,-0.2087,-0.2117,-0.2156,-0.2219,-0.2249,-0.2293,-0.2311,-0.234,-0.2342,-0.2331,-0.231,-0.2314,-0.2283,-0.2285,-0.2194,-0.2188,-0.204,-0.202,-0.2266,-0.2266,-0.2266,-0.2266,-0.2266,0,-0.1827,-0.1856,-0.1942,-0.1966,-0.2005,-0.208,-0.2119,-0.2165,-0.2225,-0.2248,-0.23,-0.2316,-0.2339,-0.233,-0.2307,-0.2243,-0.2281,-0.2189,-0.2171,-0.2045,-0.2028,-0.2251,-0.225,-0.2264,-0.2264,-0.2265,-0.2265,0,-0.1765,-0.183,-0.1872,-0.1961,-0.1984,-0.2001,-0.2085,-0.2109,-0.2179,-0.2207,-0.222,-0.2288,-0.2272,-0.2279,-0.2253,-0.2224,-0.2179,-0.2143,-0.1983,-0.1947,-0.2082,-0.2084,-0.2032,-0.2029,-0.2027,-0.2025,-0.2023,0,-0.174,-0.1757,-0.1834,-0.1853,-0.189,-0.1936,-0.1967,-0.206,-0.2089,-0.218,-0.218,-0.2201,-0.2184,-0.2134,-0.208,-0.2013,-0.2094,-0.1847,-0.1833,-0.2072,-0.206,-0.2065,-0.2069,-0.1643,-0.1638,-0.1634,-0.1631,0,-0.1675,-0.1699,-0.1733,-0.1767,-0.1799,-0.1835,-0.1886,-0.1908,-0.2008,-0.2039,-0.2063,-0.2056,-0.2023,-0.1893,-0.183,-0.1778,-0.185,-0.1766,-0.2048,-0.1734,-0.1703,-0.1692,-0.1709,-0.1597,-0.16,-0.1603,-0.1605,-0.1606,-0.1605,-0.1603,-0.1642,-0.1661,-0.1695,-0.1706,-0.1693,-0.1758,-0.1775,-0.1789,-0.1876,-0.1822,-0.1823,-0.1637,-0.1547,-0.1484,-0.1611,-0.1556,-0.1568,-0.1585,-0.1558,-0.1525,-0.1379,-0.1381,-0.1383,-0.1384,-0.1386,0,-0.1506,-0.1518,-0.1535,-0.1551,-0.1533,-0.1589,-0.1613,-0.158,-0.1547,-0.1591,-0.1582,-0.1445,-0.1356,-0.1359,-0.12,-0.1169,-0.1161,-0.1129,-0.1125,-0.116,-0.119,-0.1144,-0.0855,-0.0853,-0.0852,-0.085,0,0,-0.1457,-0.1432,-0.1438,-0.1373,-0.1381,-0.1314,-0.1295,-0.1263,-0.1265,-0.1206,-0.1189,-0.1289,-0.1329,-0.1103,-0.1041,-0.0921,-0.1029,-0.0872,-0.1299,-0.1329,-0.1357,-0.1437,-0.1405,0,0,0,0,0]},{"header":{"parameterUnit":"m.s-1","parameterCategory":2,"la1":30.2991,"la2":30.254,"lo1":-89.0895,"lo2":-89.0444,"dy":0.0017,"dx":0.0017,"nx":28,"ny":28,"refTime":"2024-06-08T03:00:00:Z","depth":"2","parameterNumber":3,"parameterNumberName":"V-component_of_CURRENTS"},"data":[0,0,0,0,0,0,0,0,0,0,0,0,0,0,0,0,0,0,0,0,0,0,0,0,0,0,0,0,0,0,0,0,0,0,0,0,0,0,0,0,0,0,0,0,0,0,0,0,0,0,0,0,0,0,0,0,0,0,-0.0112,-0.0111,0,-0.0043,-0.0042,-0.0041,0.0013,0.0013,0.0014,0.0014,0.0107,0.0109,0.011,0,0,0,0,0,0,0,0,0,0,0,0,0,-0.0163,-0.0163,-0.0112,-0.0111,-0.011,-0.0043,-0.0042,-0.0041,0.0013,0.0013,0.0014,0.0014,0.0106,0.0108,0.0111,0,0,0,0,0,0,0,0,0,0,0,0,0,-0.0122,-0.0163,-0.0112,-0.0075,-0.0071,-0.0043,-0.0042,-0.0041,0.0012,0.0013,0.0014,0.0015,0.0105,0.0108,0.0111,0.0114,0,0,0.012,0.0121,0,0,0,0,0,0,0,0,-0.0125,-0.0121,-0.0082,-0.0078,-0.0073,-0.0023,-0.0026,0.0012,0.0012,-0.0019,0.0014,0.0015,0.0065,0.0071,0.0082,0.0119,0.0123,0.012,0.0122,0.0123,0.0124,0,0,0,0,0,0,0,-0.0128,-0.0123,-0.0084,-0.0081,-0.0076,-0.0051,-0.0045,-0.0019,0.0018,-0.0016,-0.0012,-0.0005,0.0067,0.0079,0.0085,0.0124,0.012,0.0123,0.0125,0.0126,0.0171,0.017,0,0,0,0,0,0,-0.0139,-0.0126,-0.0087,-0.0082,-0.0098,-0.0051,-0.0044,-0.004,0.0018,0.0027,-0.0006,-0.0003,0.0074,0.0081,0.0088,0.0098,0.0123,0.0126,0.0128,0.0171,0.0171,0.017,0,0,0,0,0,0,-0.0141,-0.0137,-0.0089,-0.0102,-0.0095,-0.0051,-0.0047,-0.0039,-0.0025,0.0025,0.0035,-0.0,0.0075,0.0084,0.0107,0.0102,0.0128,0.013,0.0172,0.0171,0.017,0.0116,0,0,0,0,0,0,-0.0143,-0.0138,-0.0141,-0.0103,-0.0094,-0.008,-0.0047,-0.0038,-0.0022,-0.0017,0.0033,0.0043,0.0076,0.0103,0.011,0.0107,0.0133,0.0173,0.0172,0.0171,0.0118,0.0113,0.0109,0,0,0,0,0,-0.0145,-0.0155,-0.0142,-0.0137,-0.01,-0.008,-0.0074,-0.0039,-0.0023,-0.0023,0.0012,0.0041,0.0101,0.0104,0.0114,0.0111,0.0173,0.0172,0.0171,0.012,0.0114,0.0109,0,0,0,0,0,0,-0.0179,-0.0149,-0.0134,-0.0135,-0.0112,-0.0071,-0.0069,-0.0045,-0.0018,-0.0014,0.0035,0.0046,0.0062,0.0091,0.0094,0.0119,0.0141,0.0142,0.01,0.0094,0.009,0.0082,0.0135,0,0,0,0,0,-0.019,-0.0189,-0.0155,-0.0157,-0.0148,-0.011,-0.0098,-0.0076,-0.0046,-0.0033,0.0002,0.0037,0.0063,0.0082,0.0106,0.0123,0.016,0.0126,0.0121,0.0117,0.0116,0.0164,0.0164,0.0166,0.0166,0.0166,0,0,-0.0203,-0.0187,-0.0186,-0.0164,-0.0144,-0.0142,-0.0101,-0.0089,-0.0083,-0.0028,-0.0014,0.0018,0.0061,0.0077,0.0088,0.0103,0.0134,0.0115,0.0111,0.0113,0.0163,0.0163,0.0163,0.0165,0.0165,0.0165,0,0,-0.0237,-0.0217,-0.0231,-0.0216,-0.0193,-0.0168,-0.0168,-0.0133,-0.0112,-0.0095,-0.0056,-0.0025,0.0012,0.0047,0.0069,0.0052,0.0102,0.0055,0.0034,0.008,0.0081,0.0082,0.0125,0.013,0.006,0.0059,0.0059,0,-0.0256,-0.0266,-0.0232,-0.0241,-0.0234,-0.0185,-0.0198,-0.0172,-0.0133,-0.0117,-0.0101,-0.0038,-0.0,0.0031,0.0026,0.0043,0.0074,0.0053,0.0075,0.0076,0.0078,0.0123,0.0129,0.0057,0.0057,0.0057,0.0057,0,-0.0297,-0.0306,-0.0314,-0.0309,-0.0296,-0.0299,-0.0259,-0.0244,-0.0213,-0.018,-0.0146,-0.0092,-0.0052,-0.0037,-0.0008,0.0021,0.004,0.0058,0.009,0.0075,0.0122,0.013,0.0053,0.0054,0.0054,0.0055,0,0,-0.0337,-0.0344,-0.0346,-0.0361,-0.0332,-0.033,-0.0316,-0.029,-0.0278,-0.0232,-0.0211,-0.0157,-0.0119,-0.0092,-0.0048,-0.0002,0.0041,0.0029,0.0033,0.0073,0.0141,0.0174,0.0186,0.0062,0.0063,0.0064,0.0168,0,-0.0382,-0.0423,-0.0406,-0.044,-0.0456,-0.041,-0.0401,-0.0365,-0.0323,-0.0289,-0.0217,-0.0184,-0.0141,-0.0122,-0.007,0.0009,0.0059,0.001,0.015,0.0154,0.0186,0.0196,0.0176,0.0269,0.0176,0.0178,0.0179,0,-0.0426,-0.0448,-0.0493,-0.0508,-0.051,-0.0516,-0.0489,-0.0476,-0.0405,-0.0369,-0.0312,-0.0253,-0.018,-0.0143,-0.0008,-0.0042,0.0042,0.011,0.0116,0.0171,0.0201,0.027,0.0288,0.0193,0.0191,0.019,0.0189,0,-0.0475,-0.051,-0.055,-0.0554,-0.0557,-0.0564,-0.0556,-0.05,-0.0487,-0.0417,-0.0393,-0.0298,-0.0248,-0.0136,0.0008,-0.0001,0.0165,0.0173,0.0284,0.0287,0.0312,0.0316,0.0272,0.0272,0.0272,0.0272,0.0271,0,-0.0529,-0.0563,-0.058,-0.0605,-0.0645,-0.0618,-0.0635,-0.0608,-0.0559,-0.054,-0.0441,-0.0397,-0.0244,-0.0127,-0.0002,0.017,0.0162,0.0286,0.032,0.0292,0.0292,0.0256,0.0253,0.0276,0.0275,0.0274,0.0273,0,-0.0578,-0.059,-0.0644,-0.0665,-0.0675,-0.0701,-0.0703,-0.0705,-0.0649,-0.062,-0.0601,-0.0469,-0.0313,-0.0145,0.005,0.0157,0.0317,0.0382,0.0338,0.0365,0.0409,0.0401,0.0508,0.051,0.0511,0.0513,0.0514,0,-0.061,-0.0641,-0.0695,-0.0729,-0.0746,-0.0775,-0.0789,-0.0756,-0.0751,-0.0657,-0.0646,-0.0491,-0.0364,-0.0063,0.0153,0.0384,0.0379,0.0492,0.0475,0.0412,0.0435,0.0424,0.0415,0.0486,0.0487,0.0488,0.0488,0,-0.0666,-0.0682,-0.0726,-0.0796,-0.0834,-0.0872,-0.0889,-0.0897,-0.0841,-0.0788,-0.0684,-0.0572,-0.028,-0.002,0.0274,0.0401,0.045,0.0515,0.0476,0.0425,0.04,0.0419,0.0409,0.0495,0.0494,0.0494,0.0494,0.0493,-0.07,-0.0746,-0.08,-0.0863,-0.0909,-0.095,-0.0967,-0.0955,-0.0927,-0.0825,-0.0716,-0.0516,-0.027,0.0154,0.0365,0.055,0.0539,0.0585,0.058,0.0575,0.0548,0.0528,0.0642,0.0642,0.0643,0.0643,0.0643,0,-0.074,-0.0791,-0.0862,-0.0935,-0.0985,-0.0994,-0.1016,-0.0997,-0.0945,-0.0821,-0.0682,-0.0395,-0.0093,0.0155,0.0464,0.0646,0.062,0.0662,0.0599,0.0592,0.0585,0.0557,0.0655,0.0655,0.0656,0.0656,0,0,-0.0766,-0.0841,-0.088,-0.0975,-0.1021,-0.1058,-0.1061,-0.1005,-0.0913,-0.077,-0.0615,-0.0395,-0.0086,0.0137,0.0367,0.0524,0.0504,0.0529,0.0502,0.0394,0.0385,0.0527,0.0473,0,0,0,0,0]}],[{"header":{"parameterUnit":"m.s-1","parameterCategory":2,"la1":30.2991,"la2":30.254,"lo1":-89.0895,"lo2":-89.0444,"dy":0.0017,"dx":0.0017,"nx":28,"ny":28,"refTime":"2024-06-08T03:00:00:Z","depth":"4","parameterNumber":2,"parameterNumberName":"U-component_of_CURRENTS"},"data":[0,0,0,0,0,0,0,0,0,0,0,0,0,0,0,0,0,0,0,0,0,0,0,0,0,0,0,0,0,0,0,0,0,0,0,0,0,0,0,0,0,0,0,0,0,0,0,0,0,0,0,0,0,0,0,0,0,0,-0.1424,-0.1425,0,-0.1494,-0.1495,-0.1495,-0.1535,-0.1535,-0.1535,-0.1535,-0.1632,-0.1635,-0.1637,0,0,0,0,0,0,0,0,0,0,0,0,0,-0.1332,-0.1333,-0.1424,-0.1425,-0.1426,-0.1494,-0.1495,-0.1496,-0.1535,-0.1535,-0.1535,-0.1535,-0.1632,-0.1634,-0.1637,0,0,0,0,0,0,0,0,0,0,0,0,0,-0.1383,-0.1334,-0.1424,-0.1454,-0.1458,-0.1494,-0.1495,-0.1496,-0.1534,-0.1535,-0.1535,-0.1535,-0.1631,-0.1634,-0.1638,-0.1654,0,0,-0.1649,-0.165,0,0,0,0,0,0,0,0,-0.138,-0.1386,-0.1449,-0.1452,-0.1456,-0.1507,-0.1498,-0.155,-0.1534,-0.1504,-0.1535,-0.1535,-0.1593,-0.16,-0.1611,-0.1659,-0.1663,-0.1649,-0.1651,-0.1653,-0.1654,0,0,0,0,0,0,0,-0.1377,-0.1384,-0.1451,-0.145,-0.1454,-0.1467,-0.1474,-0.1508,-0.1546,-0.1507,-0.151,-0.1519,-0.1595,-0.1607,-0.1613,-0.1664,-0.1649,-0.1652,-0.1654,-0.1656,-0.1789,-0.1791,0,0,0,0,0,0,-0.1369,-0.138,-0.1449,-0.1453,-0.1419,-0.1468,-0.1477,-0.1489,-0.1545,-0.1554,-0.1519,-0.1521,-0.1601,-0.1609,-0.1617,-0.1697,-0.1653,-0.1656,-0.1658,-0.1788,-0.179,-0.1791,0,0,0,0,0,0,-0.1367,-0.1375,-0.1446,-0.1419,-0.1429,-0.147,-0.1484,-0.1491,-0.1527,-0.1554,-0.1563,-0.1551,-0.1601,-0.1612,-0.1669,-0.1698,-0.1658,-0.1661,-0.1786,-0.1788,-0.179,-0.1819,0,0,0,0,0,0,-0.1364,-0.1374,-0.1393,-0.1418,-0.143,-0.1483,-0.1484,-0.1492,-0.1531,-0.1535,-0.1584,-0.1592,-0.1602,-0.1663,-0.1672,-0.1703,-0.1664,-0.1784,-0.1787,-0.179,-0.1817,-0.1822,-0.1827,0,0,0,0,0,-0.1361,-0.1381,-0.1393,-0.1402,-0.1451,-0.1484,-0.1492,-0.1521,-0.1532,-0.1554,-0.1588,-0.1592,-0.1686,-0.1668,-0.1678,-0.171,-0.1783,-0.1786,-0.1789,-0.1814,-0.1821,-0.1827,0,0,0,0,0,0,-0.1353,-0.1388,-0.1402,-0.1433,-0.1465,-0.1492,-0.1517,-0.1536,-0.1579,-0.1591,-0.1613,-0.1624,-0.1682,-0.1694,-0.1673,-0.1756,-0.1734,-0.174,-0.175,-0.1756,-0.1761,-0.1754,-0.1667,0,0,0,0,0,-0.1359,-0.1385,-0.1417,-0.1445,-0.1462,-0.1495,-0.1517,-0.1539,-0.1573,-0.1594,-0.1629,-0.1666,-0.1699,-0.1727,-0.1757,-0.1808,-0.1796,-0.1834,-0.1839,-0.1843,-0.1845,-0.1852,-0.1857,-0.1801,-0.1801,-0.1801,0,0,-0.1364,-0.1387,-0.1403,-0.1446,-0.1472,-0.1507,-0.151,-0.1551,-0.1588,-0.1598,-0.1666,-0.1688,-0.1716,-0.1768,-0.1795,-0.1786,-0.1853,-0.1847,-0.1851,-0.185,-0.1855,-0.186,-0.1865,-0.1803,-0.1803,-0.1803,0,0,-0.1378,-0.1408,-0.1433,-0.1463,-0.1509,-0.1531,-0.1549,-0.1594,-0.1624,-0.1685,-0.1697,-0.1737,-0.1801,-0.1819,-0.1836,-0.189,-0.1877,-0.1906,-0.1932,-0.1939,-0.1943,-0.1946,-0.1929,-0.1931,-0.1912,-0.1912,-0.1912,0,-0.1384,-0.1419,-0.1446,-0.148,-0.151,-0.1545,-0.1582,-0.1618,-0.1679,-0.1706,-0.1715,-0.1798,-0.1822,-0.1872,-0.1889,-0.1902,-0.1894,-0.1905,-0.1944,-0.1947,-0.195,-0.1932,-0.1933,-0.1913,-0.1913,-0.1913,-0.1913,0,-0.141,-0.1451,-0.147,-0.1523,-0.156,-0.1598,-0.1647,-0.1694,-0.1734,-0.1764,-0.183,-0.186,-0.1904,-0.192,-0.1925,-0.1964,-0.1946,-0.1944,-0.1923,-0.1957,-0.1936,-0.1937,-0.1916,-0.1915,-0.1915,-0.1914,0,0,-0.1388,-0.1472,-0.1481,-0.1515,-0.1588,-0.1617,-0.1686,-0.1746,-0.1786,-0.1846,-0.1892,-0.1949,-0.1958,-0.1977,-0.1987,-0.1997,-0.2009,-0.1984,-0.1984,-0.1957,-0.2007,-0.1875,-0.1863,-0.2013,-0.2014,-0.2014,-0.1979,0,-0.1402,-0.1465,-0.151,-0.1578,-0.1613,-0.1674,-0.1731,-0.1793,-0.1843,-0.1896,-0.193,-0.1976,-0.1982,-0.2001,-0.2016,-0.2014,-0.2015,-0.2017,-0.1986,-0.1985,-0.1856,-0.1861,-0.2017,-0.1979,-0.198,-0.198,-0.198,0,-0.1407,-0.1451,-0.1519,-0.1605,-0.1627,-0.1679,-0.1767,-0.182,-0.1896,-0.1936,-0.1984,-0.2007,-0.2044,-0.2035,-0.205,-0.2051,-0.2032,-0.2022,-0.2021,-0.1887,-0.1855,-0.1942,-0.1981,-0.1981,-0.1981,-0.1981,-0.1981,0,-0.1361,-0.1454,-0.1508,-0.154,-0.1643,-0.1692,-0.1747,-0.1832,-0.1875,-0.1952,-0.1984,-0.2033,-0.2056,-0.2056,-0.2046,-0.205,-0.2039,-0.2039,-0.1899,-0.1889,-0.2006,-0.2003,-0.2034,-0.2034,-0.2034,-0.2035,-0.2035,0,-0.1343,-0.1388,-0.1496,-0.1524,-0.1588,-0.1671,-0.1741,-0.1801,-0.1884,-0.1919,-0.1992,-0.2014,-0.2063,-0.2065,-0.2049,-0.1967,-0.2041,-0.1893,-0.187,-0.2019,-0.2018,-0.2006,-0.2003,-0.2033,-0.2034,-0.2034,-0.2034,0,-0.128,-0.1355,-0.1417,-0.1531,-0.1568,-0.161,-0.1724,-0.1764,-0.1856,-0.1901,-0.1924,-0.2003,-0.1994,-0.2014,-0.2005,-0.1949,-0.1899,-0.1851,-0.1995,-0.1982,-0.1743,-0.1743,-0.1683,-0.1678,-0.1674,-0.167,-0.1667,0,-0.1251,-0.1279,-0.1396,-0.1433,-0.1489,-0.1568,-0.1618,-0.173,-0.1765,-0.1873,-0.1874,-0.191,-0.194,-0.1814,-0.1858,-0.1799,-0.1781,-0.1748,-0.1754,-0.1723,-0.1707,-0.1714,-0.1719,-0.1661,-0.166,-0.1658,-0.1657,0,-0.1185,-0.1239,-0.1288,-0.1357,-0.1419,-0.1475,-0.1551,-0.1567,-0.168,-0.1781,-0.1764,-0.1751,-0.1733,-0.1715,-0.1676,-0.1644,-0.1769,-0.1703,-0.1712,-0.1718,-0.1695,-0.1685,-0.1695,-0.1643,-0.1645,-0.1646,-0.1647,0,-0.1132,-0.1145,-0.1213,-0.126,-0.1331,-0.1352,-0.1413,-0.1449,-0.1493,-0.1614,-0.1602,-0.1642,-0.1709,-0.1633,-0.1604,-0.1552,-0.1529,-0.1488,-0.1508,-0.1524,-0.1489,-0.1438,-0.1275,0,0,0,0,0,-0.1068,-0.1071,-0.111,-0.1156,-0.1221,-0.1254,-0.1352,-0.1418,-0.1529,-0.1467,-0.1529,-0.1501,-0.1458,-0.1487,-0.1395,-0.1531,-0.1538,-0.142,-0.1502,-0.1562,-0.1579,-0.1552,0,0,0,0,0,0,-0.1027,-0.1059,-0.1068,-0.1049,-0.1059,-0.1112,-0.1165,-0.1248,-0.1225,-0.1341,-0.1316,-0.1403,-0.1374,-0.1468,-0.1357,-0.1364,-0.1384,-0.1454,-0.145,-0.1552,-0.1567,-0.1581,-0.156,0,0,0,0,0]},{"header":{"parameterUnit":"m.s-1","parameterCategory":2,"la1":30.2991,"la2":30.254,"lo1":-89.0895,"lo2":-89.0444,"dy":0.0017,"dx":0.0017,"nx":28,"ny":28,"refTime":"2024-06-08T03:00:00:Z","depth":"4","parameterNumber":3,"parameterNumberName":"V-component_of_CURRENTS"},"data":[0,0,0,0,0,0,0,0,0,0,0,0,0,0,0,0,0,0,0,0,0,0,0,0,0,0,0,0,0,0,0,0,0,0,0,0,0,0,0,0,0,0,0,0,0,0,0,0,0,0,0,0,0,0,0,0,0,0,-0.007,-0.0069,0,-0.002,-0.002,-0.0019,0.002,0.0021,0.0021,0.0022,0.0098,0.0099,0.0101,0,0,0,0,0,0,0,0,0,0,0,0,0,-0.0103,-0.0102,-0.007,-0.0069,-0.0069,-0.0021,-0.002,-0.0019,0.002,0.0021,0.0021,0.0022,0.0097,0.0099,0.0101,0,0,0,0,0,0,0,0,0,0,0,0,0,-0.0074,-0.0102,-0.007,-0.0043,-0.0041,-0.0021,-0.002,-0.0019,0.002,0.0021,0.0021,0.0022,0.0097,0.0099,0.0102,0.0106,0,0,0.0109,0.011,0,0,0,0,0,0,0,0,-0.0076,-0.0073,-0.0048,-0.0045,-0.0042,-0.0006,-0.0003,0.0024,0.002,-0.0002,0.0022,0.0022,0.0065,0.007,0.0078,0.011,0.0113,0.0109,0.0111,0.0112,0.0113,0,0,0,0,0,0,0,-0.0078,-0.0075,-0.005,-0.0047,-0.0044,-0.0025,-0.002,0.0002,0.0028,-0.0,0.0002,0.0007,0.0067,0.0076,0.008,0.0114,0.0109,0.0112,0.0113,0.0114,0.0156,0.0156,0,0,0,0,0,0,-0.0087,-0.0077,-0.0052,-0.0048,-0.0058,-0.0025,-0.002,-0.0018,0.0028,0.0035,0.0007,0.0009,0.0071,0.0077,0.0083,0.0096,0.0112,0.0114,0.0116,0.0157,0.0156,0.0156,0,0,0,0,0,0,-0.0088,-0.0085,-0.0054,-0.0062,-0.0056,-0.0025,-0.0023,-0.0017,-0.0007,0.0033,0.0041,0.0011,0.0072,0.008,0.01,0.0099,0.0116,0.0118,0.0157,0.0156,0.0156,0.0118,0,0,0,0,0,0,-0.0089,-0.0086,-0.009,-0.0062,-0.0056,-0.0047,-0.0023,-0.0017,-0.0005,-0.0001,0.0039,0.0047,0.0073,0.0096,0.0102,0.0103,0.012,0.0158,0.0157,0.0156,0.012,0.0116,0.0113,0,0,0,0,0,-0.009,-0.0099,-0.009,-0.0087,-0.0062,-0.0047,-0.0042,-0.0018,-0.0005,-0.0005,0.0022,0.0045,0.0096,0.0097,0.0105,0.0106,0.0158,0.0157,0.0156,0.0121,0.0117,0.0113,0,0,0,0,0,0,-0.0115,-0.0095,-0.0085,-0.0086,-0.0071,-0.0041,-0.004,-0.0022,-0.0001,0.0003,0.0041,0.005,0.0065,0.0089,0.0089,0.0115,0.013,0.0131,0.0101,0.0098,0.0094,0.0087,0.0122,0,0,0,0,0,-0.0123,-0.0124,-0.01,-0.0103,-0.0097,-0.007,-0.0061,-0.0045,-0.0021,-0.0011,0.0016,0.0044,0.0067,0.0084,0.0103,0.012,0.0153,0.0125,0.0122,0.0119,0.0117,0.0171,0.0172,0.0153,0.0153,0.0153,0,0,-0.0133,-0.0123,-0.0123,-0.0108,-0.0094,-0.0093,-0.0063,-0.0055,-0.005,-0.0007,0.0005,0.003,0.0066,0.0082,0.0091,0.0104,0.014,0.0118,0.0115,0.0115,0.017,0.0172,0.0174,0.0152,0.0152,0.0152,0,0,-0.0158,-0.0146,-0.0157,-0.0147,-0.013,-0.0113,-0.0113,-0.0087,-0.0071,-0.0058,-0.0027,0.0001,0.003,0.0063,0.0082,0.0073,0.0115,0.0074,0.0061,0.0113,0.0115,0.0118,0.0156,0.0162,0.008,0.008,0.008,0,-0.0173,-0.0182,-0.0158,-0.0165,-0.0161,-0.0126,-0.0136,-0.0116,-0.0086,-0.0072,-0.0062,-0.0007,0.0024,0.0058,0.0054,0.0067,0.0096,0.0074,0.011,0.0113,0.0116,0.0155,0.0162,0.0078,0.0078,0.0079,0.0079,0,-0.0202,-0.0211,-0.0217,-0.0215,-0.0206,-0.021,-0.0179,-0.0169,-0.0147,-0.0119,-0.0088,-0.0043,-0.0007,0.0007,0.0029,0.0064,0.0076,0.0094,0.0121,0.0116,0.0157,0.0165,0.0075,0.0076,0.0077,0.0077,0,0,-0.023,-0.0239,-0.0241,-0.0255,-0.0234,-0.0233,-0.0223,-0.0201,-0.0192,-0.0153,-0.0132,-0.0085,-0.0053,-0.003,0.0008,0.0056,0.0104,0.008,0.0084,0.012,0.0209,0.0187,0.0194,0.0129,0.013,0.0131,0.0226,0,-0.0263,-0.0295,-0.0284,-0.0313,-0.0326,-0.0294,-0.0287,-0.0258,-0.0224,-0.0195,-0.013,-0.01,-0.0067,-0.005,0.0003,0.0073,0.0125,0.0076,0.0207,0.021,0.0193,0.0203,0.0136,0.0233,0.0235,0.0236,0.0237,0,-0.0294,-0.0312,-0.0349,-0.0365,-0.0367,-0.0376,-0.0357,-0.0347,-0.0286,-0.0256,-0.0203,-0.0152,-0.0083,-0.0053,0.0077,0.0042,0.0119,0.0181,0.0186,0.0185,0.0204,0.0241,0.0253,0.0252,0.0251,0.0249,0.0248,0,-0.0327,-0.0359,-0.0393,-0.0398,-0.0404,-0.0414,-0.0413,-0.0367,-0.0356,-0.0294,-0.0271,-0.0181,-0.0137,-0.0029,0.0092,0.0087,0.024,0.0253,0.031,0.0309,0.0318,0.0315,0.0354,0.0354,0.0354,0.0354,0.0353,0,-0.0362,-0.0393,-0.0418,-0.0438,-0.0477,-0.0459,-0.0476,-0.0457,-0.0414,-0.0394,-0.031,-0.0267,-0.0128,-0.0024,0.0088,0.0219,0.0241,0.0308,0.0335,0.0298,0.0291,0.0324,0.032,0.0357,0.0356,0.0356,0.0355,0,-0.0392,-0.0408,-0.0456,-0.0484,-0.0498,-0.0525,-0.0537,-0.0536,-0.0492,-0.0461,-0.0444,-0.0329,-0.0197,-0.0051,0.0128,0.0204,0.0338,0.0385,0.0328,0.0349,0.0374,0.0366,0.045,0.045,0.045,0.045,0.045,0,-0.041,-0.0437,-0.0498,-0.0533,-0.0555,-0.0588,-0.0604,-0.0581,-0.0571,-0.0492,-0.0475,-0.0351,-0.0258,-0.0018,0.0125,0.0332,0.0362,0.0422,0.0402,0.0367,0.0385,0.0377,0.0369,0.045,0.045,0.045,0.045,0,-0.0444,-0.0468,-0.0507,-0.058,-0.0622,-0.0658,-0.0678,-0.0674,-0.0627,-0.0593,-0.0481,-0.0349,-0.02,-0.0022,0.0136,0.0286,0.0373,0.0423,0.0424,0.0406,0.0369,0.0385,0.0377,0.045,0.045,0.045,0.045,0,-0.0467,-0.0504,-0.0559,-0.0618,-0.0675,-0.0705,-0.0712,-0.0682,-0.0661,-0.0564,-0.0528,-0.0351,-0.0249,-0.0044,0.0105,0.024,0.0271,0.0307,0.0314,0.0316,0.0242,0.0173,0.022,0,0,0,0,0,-0.0483,-0.0528,-0.0592,-0.0656,-0.0708,-0.0735,-0.0748,-0.0736,-0.069,-0.0616,-0.0566,-0.0417,-0.0187,-0.0085,0.0049,0.0087,0.0276,0.0244,0.0316,0.0451,0.0451,0.0384,0,0,0,0,0,0,-0.0498,-0.0561,-0.0594,-0.0665,-0.071,-0.0758,-0.0765,-0.0735,-0.0681,-0.0616,-0.0489,-0.0404,-0.0181,-0.0263,0.0045,0.0086,0.0145,0.0358,0.036,0.0452,0.0451,0.0451,0.0383,0,0,0,0,0]}]]